When you browse on this site, cookies collect data to enhance your experience and personalize the content and advertising you see.
Visit our Privacy Policy to learn more. By continuing to use the site, you agree to this use of cookies and data.
  • In United Kingdom
  • List of Countries
  • For 7 days
  • Water Temperature
  • Satellite Maps
  • Weather Map
  • Weather Widgets
  • user-avatar
    Login

    Hourly Weather Nadvornaya

    Today, 21 November, Wednesday

    Time Temperature Precipitation Wind Pressure Humidity
    00:00 -5°C° 0 mm 4 mps 723 mmHg 100%
    01:00 -5°C° 0 mm 4 mps 723 mmHg 100%
    02:00 -2°C° 0 mm 3 mps 723 mmHg 96%
    03:00 -5°C° 0 mm 3 mps 723 mmHg 100%
    04:00 -4°C° 0 mm 3 mps 723 mmHg 100%
    05:00 -5°C° 0.1 mm 3 mps 723 mmHg 100%
    06:00 -5°C° 0 mm 3 mps 723 mmHg 100%
    07:00 -5°C° 0 mm 3 mps 723 mmHg 100%
    08:00 -5°C° 0 mm 3 mps 724 mmHg 100%
    09:00 -5°C° 0 mm 3 mps 724 mmHg 100%
    10:00 -5°C° 0 mm 4 mps 724 mmHg 100%
    11:00 -5°C° 0.1 mm 4 mps 724 mmHg 100%
    12:00 -4°C° 0.2 mm 4 mps 724 mmHg 100%
    13:00 -4°C° 0.1 mm 4 mps 724 mmHg 100%
    14:00 0°C° 0 mm 3 mps 724 mmHg 90%
    15:00 -2°C° 0 mm 4 mps 725 mmHg 100%
    16:00 -3°C° 0.1 mm 4 mps 724 mmHg 100%
    17:00 -4°C° 0.1 mm 4 mps 725 mmHg 100%
    18:00 -5°C° 0 mm 3 mps 725 mmHg 100%
    19:00 -5°C° 0 mm 3 mps 725 mmHg 100%
    20:00 -5°C° 0 mm 3 mps 725 mmHg 100%
    21:00 -5°C° 0 mm 3 mps 725 mmHg 100%
    22:00 -5°C° 0.1 mm 3 mps 726 mmHg 100%
    23:00 -5°C° 0.1 mm 3 mps 726 mmHg 100%

    Tomorrow, 22 November, Thursday

    Time Temperature Precipitation Wind Pressure Humidity
    00:00 -5°C° 0 mm 3 mps 726 mmHg 100%
    01:00 -5°C° 0 mm 3 mps 726 mmHg 100%
    02:00 -4°C° 0 mm 2 mps 726 mmHg 100%
    03:00 -4°C° 0 mm 2 mps 726 mmHg 100%
    04:00 -4°C° 0 mm 2 mps 726 mmHg 100%
    05:00 -5°C° 0 mm 2 mps 726 mmHg 100%
    06:00 -5°C° 0 mm 2 mps 726 mmHg 100%
    07:00 -5°C° 0 mm 2 mps 726 mmHg 100%
    08:00 -5°C° 0 mm 2 mps 726 mmHg 100%
    09:00 -5°C° 0 mm 2 mps 726 mmHg 100%
    10:00 -5°C° 0 mm 2 mps 727 mmHg 100%
    11:00 -5°C° 0 mm 2 mps 727 mmHg 100%
    12:00 -4°C° 0 mm 2 mps 727 mmHg 100%
    13:00 -3°C° 0 mm 2 mps 727 mmHg 100%
    14:00 -3°C° 0 mm 2 mps 727 mmHg 100%
    15:00 -1°C° 0 mm 1 mps 727 mmHg 100%
    16:00 -2°C° 0 mm 1 mps 727 mmHg 100%
    17:00 -3°C° 0 mm 1 mps 727 mmHg 100%
    18:00 -4°C° 0 mm 1 mps 727 mmHg 100%
    19:00 -5°C° 0 mm 0 mps 727 mmHg 100%
    20:00 -6°C° 0 mm 0 mps 727 mmHg 100%
    21:00 -6°C° 0 mm 0 mps 727 mmHg 100%
    22:00 -4°C° 0 mm 1 mps 727 mmHg 100%
    23:00 -3°C° 0 mm 1 mps 727 mmHg 100%

    Day after tomorrow, 23 November, Friday

    Time Temperature Precipitation Wind Pressure Humidity
    00:00 -2°C° 0 mm 1 mps 728 mmHg 100%
    01:00 -3°C° 0 mm 0 mps 728 mmHg 100%
    02:00 -3°C° 0 mm 0 mps 728 mmHg 100%
    03:00 -1°C° 0 mm 1 mps 728 mmHg 100%
    04:00 -1°C° 0 mm 0 mps 728 mmHg 100%
    05:00 -1°C° 0 mm 0 mps 729 mmHg 99%
    06:00 0°C° 0 mm 0 mps 729 mmHg 99%
    07:00 0°C° 0 mm 0 mps 729 mmHg 99%
    08:00 0°C° 0 mm 0 mps 729 mmHg 99%
    09:00 0°C° 0 mm 0 mps 729 mmHg 99%
    10:00 +1°C° 0 mm 0 mps 730 mmHg 100%
    11:00 +1°C° 0 mm 0 mps 730 mmHg 100%
    12:00 +2°C° 0 mm 1 mps 730 mmHg 100%
    13:00 +3°C° 0 mm 1 mps 730 mmHg 100%
    14:00 +2°C° 0 mm 1 mps 730 mmHg 100%
    15:00 +2°C° 0 mm 1 mps 730 mmHg 100%
    16:00 +1°C° 0 mm 1 mps 730 mmHg 100%
    17:00 +1°C° 0 mm 1 mps 730 mmHg 100%
    18:00 +1°C° 0 mm 1 mps 730 mmHg 100%
    19:00 +1°C° 0 mm 1 mps 729 mmHg 100%
    20:00 0°C° 0 mm 1 mps 729 mmHg 100%
    21:00 0°C° 0 mm 1 mps 729 mmHg 100%
    22:00 0°C° 0 mm 1 mps 729 mmHg 100%
    23:00 0°C° 0 mm 1 mps 729 mmHg 100%

    24 November, Saturday

    Time Temperature Precipitation Wind Pressure Humidity
    00:00 -1°C° 0 mm 1 mps 728 mmHg 100%
    01:00 -2°C° 0 mm 0 mps 728 mmHg 100%
    02:00 -2°C° 0 mm 0 mps 727 mmHg 100%
    03:00 -2°C° 0 mm 0 mps 727 mmHg 100%
    04:00 -2°C° 0 mm 0 mps 726 mmHg 100%
    05:00 -3°C° 0 mm 0 mps 726 mmHg 100%
    06:00 -1°C° 0 mm 1 mps 726 mmHg 98%
    07:00 -1°C° 0 mm 1 mps 726 mmHg 96%
    08:00 0°C° 0 mm 1 mps 725 mmHg 91%
    09:00 0°C° 0 mm 1 mps 725 mmHg 91%
    10:00 +1°C° 0 mm 1 mps 725 mmHg 89%
    11:00 +2°C° 0 mm 1 mps 724 mmHg 88%
    12:00 +3°C° 0 mm 1 mps 724 mmHg 91%
    13:00 +3°C° 0 mm 1 mps 724 mmHg 92%
    14:00 +4°C° 0 mm 1 mps 723 mmHg 89%
    15:00 +4°C° 0 mm 1 mps 723 mmHg 88%
    16:00 +4°C° 0 mm 1 mps 723 mmHg 87%
    17:00 +4°C° 0 mm 1 mps 722 mmHg 85%
    18:00 +4°C° 0 mm 1 mps 722 mmHg 83%
    19:00 +4°C° 0 mm 1 mps 722 mmHg 80%
    20:00 +5°C° 0 mm 1 mps 722 mmHg 76%
    21:00 +4°C° 0 mm 3 mps 722 mmHg 76%
    22:00 +4°C° 0 mm 3 mps 722 mmHg 76%
    23:00 +5°C° 0 mm 4 mps 721 mmHg 79%

    25 November, Sunday

    Time Temperature Precipitation Wind Pressure Humidity
    00:00 +5°C° 0 mm 4 mps 721 mmHg 81%
    01:00 +5°C° 0 mm 4 mps 721 mmHg 84%
    02:00 +5°C° 0 mm 3 mps 721 mmHg 82%
    03:00 +6°C° 0 mm 2 mps 720 mmHg 79%
    04:00 +4°C° 0 mm 3 mps 719 mmHg 83%
    05:00 +4°C° 0 mm 3 mps 719 mmHg 84%
    06:00 +5°C° 0 mm 2 mps 718 mmHg 88%
    07:00 +5°C° 0 mm 1 mps 718 mmHg 89%
    08:00 +5°C° 0 mm 2 mps 718 mmHg 88%
    09:00 +6°C° 0 mm 1 mps 718 mmHg 87%
    10:00 +6°C° 0 mm 2 mps 718 mmHg 89%
    11:00 +7°C° 0 mm 1 mps 718 mmHg 92%
    12:00 +8°C° 0 mm 1 mps 718 mmHg 88%
    13:00 +7°C° 0 mm 2 mps 718 mmHg 91%
    14:00 +8°C° 0 mm 1 mps 718 mmHg 92%

    26 November, Monday

    Time Temperature Precipitation Wind Pressure Humidity
    Show more